H1 CPF 2 NER 2023 7 7 9 188 01 glonass133 H2 1403201 9133 40001 2023 7 7 0 0 0 2023 7 10 23 45 0 900 1 1 0 0 0 1 H9 10 0 60132 0.00000 0 14007312.202 17785112.099 -11790460.853 10 0 60132 900.00000 0 14745635.883 18842804.684 -8891622.436 10 0 60132 1800.00000 0 15375568.043 19525860.875 -5820404.737 10 0 60132 2700.00000 0 15838843.252 19842021.836 -2636345.351 10 0 60132 3600.00000 0 16081570.867 19811932.989 598827.189 10 0 60132 4500.00000 0 16056677.565 19468098.123 3822385.032 10 0 60132 5400.00000 0 15726078.606 18853351.800 6971812.703 10 0 60132 6300.00000 0 15062485.987 18018914.468 9986015.623 10 0 60132 7200.00000 0 14050776.654 17022112.118 12806502.125 10 0 60132 8100.00000 0 12688862.222 15923856.314 15378516.181 10 0 60132 9000.00000 0 10988022.355 14785990.438 17652099.021 10 0 60132 9900.00000 0 8972686.284 13668613.605 19583059.138 10 0 60132 10800.00000 0 6679669.887 12627494.573 21133831.992 10 0 60132 11700.00000 0 4156898.389 11711684.278 22274212.832 10 0 60132 12600.00000 0 1461666.197 10961427.295 22981948.370 10 0 60132 13500.00000 0 -1341495.339 10406460.113 23243175.734 10 0 60132 14400.00000 0 -4183255.024 10064767.984 23052699.861 10 0 60132 15300.00000 0 -6992123.668 9941853.007 22414103.488 10 0 60132 16200.00000 0 -9697191.801 10030544.697 21339686.937 10 0 60132 17100.00000 0 -12230850.103 10311361.628 19850238.105 10 0 60132 18000.00000 0 -14531379.636 10753409.435 17974636.246 10 0 60132 18900.00000 0 -16545304.126 11315777.831 15749296.457 10 0 60132 19800.00000 0 -18229406.126 11949377.947 13217464.922 10 0 60132 20700.00000 0 -19552322.664 12599142.473 10428378.185 10 0 60132 21600.00000 0 -20495653.562 13206495.272 7436302.628 10 0 60132 22500.00000 0 -21054536.032 13711985.454 4299473.001 10 0 60132 23400.00000 0 -21237661.731 14057973.486 1078951.239 10 0 60132 24300.00000 0 -21066736.237 14191254.552 -2162571.381 10 0 60132 25200.00000 0 -20575404.608 14065506.847 -5362004.377 10 0 60132 26100.00000 0 -19807689.544 13643459.997 -8457095.317 10 0 60132 27000.00000 0 -18816009.428 12898690.747 -11387648.980 10 0 60132 27900.00000 0 -17658861.264 11816969.144 -14096703.759 10 0 60132 28800.00000 0 -16398267.614 10397097.733 -16531641.670 10 0 60132 29700.00000 0 -15097096.258 8651207.945 -18645210.124 10 0 60132 30600.00000 0 -13816366.244 6604500.961 -20396435.694 10 0 60132 31500.00000 0 -12612654.024 4294443.776 -21751412.587 10 0 60132 32400.00000 0 -11535708.573 1769454.017 -22683951.327 10 0 60132 33300.00000 0 -10626375.059 -912871.755 -23176076.105 10 0 60132 34200.00000 0 -9914913.242 -3687912.646 -23218362.225 10 0 60132 35100.00000 0 -9419779.875 -6486471.772 -22810108.240 10 0 60132 36000.00000 0 -9146924.808 -9237417.292 -21959340.345 10 0 60132 36900.00000 0 -9089628.929 -11870407.336 -20682649.665 10 0 60132 37800.00000 0 -9228889.540 -14318586.820 -19004866.010 10 0 60132 38700.00000 0 -9534336.001 -16521145.418 -16958574.526 10 0 60132 39600.00000 0 -9965636.530 -18425631.719 -14583484.460 10 0 60132 40500.00000 0 -10474336.651 -19989928.650 -11925661.904 10 0 60132 41400.00000 0 -11006051.855 -21183809.174 -9036640.868 10 0 60132 42300.00000 0 -11502922.274 -21990008.489 -5972429.350 10 0 60132 43200.00000 0 -11906226.154 -22404768.928 -2792429.129 10 0 60132 44100.00000 0 -12159042.172 -22437835.518 441710.301 10 0 60132 45000.00000 0 -12208848.454 -22111902.953 3667281.777 10 0 60132 45900.00000 0 -12009948.643 -21461537.503 6821731.730 10 0 60132 46800.00000 0 -11525622.430 -20531619.293 9843869.387 10 0 60132 47700.00000 0 -10729909.352 -19375370.340 12675050.596 10 0 60132 48600.00000 0 -9608949.854 -18052051.061 15260313.428 10 0 60132 49500.00000 0 -8161826.035 -16624421.762 17549443.691 10 0 60132 50400.00000 0 -6400865.252 -15156075.428 19497949.767 10 0 60132 51300.00000 0 -4351392.187 -13708753.486 21067928.020 10 0 60132 52200.00000 0 -2050937.805 -12339756.871 22228802.058 10 0 60132 53100.00000 0 452063.641 -11099560.812 22957921.512 10 0 60132 54000.00000 0 3100037.104 -10029733.208 23241008.580 10 0 60132 54900.00000 0 5828417.106 -9161243.893 23072443.425 10 0 60132 55800.00000 0 8568097.916 -8513235.778 22455382.386 10 0 60132 56700.00000 0 11248082.815 -8092309.655 21401706.081 10 0 60132 57600.00000 0 13798223.103 -7892352.905 19931797.631 10 0 60132 58500.00000 0 16151933.256 -7894919.610 18074154.452 10 0 60132 59400.00000 0 18248769.315 -8070146.219 15864840.337 10 0 60132 60300.00000 0 20036762.828 -8378164.267 13346787.740 10 0 60132 61200.00000 0 21474412.577 -8770950.368 10568963.363 10 0 60132 62100.00000 0 22532250.438 -9194534.940 7585413.088 10 0 60132 63000.00000 0 23193915.555 -9591475.549 4454204.969 10 0 60132 63900.00000 0 23456691.656 -9903489.276 1236291.425 10 0 60132 64800.00000 0 23331485.231 -10074131.417 -2005686.420 10 0 60132 65700.00000 0 22842246.038 -10051405.825 -5208627.902 10 0 60132 66600.00000 0 22024855.237 -9790194.962 -8310210.366 10 0 60132 67500.00000 0 20925529.159 -9254405.594 -11250109.867 10 0 60132 68400.00000 0 19598807.229 -8418738.290 -13971180.301 10 0 60132 69300.00000 0 18105210.138 -7270005.105 -16420567.290 10 0 60132 70200.00000 0 16508667.994 -5807939.263 -18550734.826 10 0 60132 71100.00000 0 14873827.519 -4045462.333 -20320384.814 10 0 60132 72000.00000 0 13263351.931 -2008397.399 -21695252.048 10 0 60132 72900.00000 0 11735326.910 265359.904 -22648760.012 10 0 60132 73800.00000 0 10340880.911 2727178.049 -23162525.776 10 0 60132 74700.00000 0 9122118.678 5319478.412 -23226705.307 10 0 60132 75600.00000 0 8110453.184 7977902.083 -22840173.616 10 0 60132 76500.00000 0 7325404.311 10633765.157 -22010537.202 10 0 60132 77400.00000 0 6773912.933 13216701.178 -20753979.270 10 0 60132 78300.00000 0 6450197.547 15657381.913 -19094941.187 10 0 60132 79200.00000 0 6336158.037 17890204.515 -17065646.459 10 0 60132 80100.00000 0 6402308.464 19855834.484 -14705476.342 10 0 60132 81000.00000 0 6609198.880 21503499.821 -12060208.812 10 0 60132 81900.00000 0 6909265.856 22792941.937 -9181135.136 10 0 60132 82800.00000 0 7249033.559 23695942.927 -6124070.624 10 0 60132 83700.00000 0 7571572.649 24197366.267 -2948278.159 10 0 60132 84600.00000 0 7819113.331 24295668.056 284675.120 10 0 60132 85500.00000 0 7935702.444 24002857.838 3512106.203 10 0 60133 0.00000 0 7869792.438 23343910.950 6671426.632 10 0 60133 900.00000 0 7576652.768 22355656.671 9701353.415 10 0 60133 1800.00000 0 7020501.687 21085189.665 12543092.854 10 0 60133 2700.00000 0 6176267.783 19587869.933 15141480.098 10 0 60133 3600.00000 0 5030906.099 17924995.626 17446048.220 10 0 60133 4500.00000 0 3584212.187 16161245.610 19412007.870 10 0 60133 5400.00000 0 1849098.292 14361998.570 21001118.352 10 0 60133 6300.00000 0 -148681.733 12590640.529 22182433.323 10 0 60133 7200.00000 0 -2371349.216 10905973.128 22932906.624 10 0 60133 8100.00000 0 -4770427.033 9359830.837 23237846.411 10 0 60133 9000.00000 0 -7288522.139 7995006.563 23091208.485 10 0 60133 9900.00000 0 -9861491.634 6843572.356 22495722.688 10 0 60133 10800.00000 0 -12420903.578 5925665.490 21462849.275 10 0 60133 11700.00000 0 -14896691.130 5248790.742 20012565.352 10 0 60133 12600.00000 0 -17219890.071 4807668.189 18172984.674 10 0 60133 13500.00000 0 -19325345.853 4584632.849 15979817.365 10 0 60133 14400.00000 0 -21154277.150 4550569.231 13475679.300 10 0 60133 15300.00000 0 -22656588.403 4666341.060 10709264.115 10 0 60133 16200.00000 0 -23792834.130 4884655.359 7734393.711 10 0 60133 17100.00000 0 -24535752.170 5152281.307 4608965.838 10 0 60133 18000.00000 0 -24871301.122 5412529.011 1393819.762 10 0 60133 18900.00000 0 -24799158.239 5607882.007 -1848457.093 10 0 60133 19800.00000 0 -24332656.977 5682670.613 -5054757.283 10 0 60133 20700.00000 0 -23498167.322 5585671.494 -8162691.131 10 0 60133 21600.00000 0 -22333945.805 5272521.956 -11111808.908 10 0 60133 22500.00000 0 -20888504.613 4707845.615 -13844782.664 10 0 60133 23400.00000 0 -19218569.647 3866998.558 -16308523.913 10 0 60133 24300.00000 0 -17386714.467 2737361.540 -18455215.095 10 0 60133 25200.00000 0 -15458770.489 1319123.240 -20243234.835 10 0 60133 26100.00000 0 -13501122.725 -374478.696 -21637959.393 10 0 60133 27000.00000 0 -11578004.619 -2317469.139 -22612425.563 10 0 60133 27900.00000 0 -9748904.915 -4471986.636 -23147843.133 10 0 60133 28800.00000 0 -8066194.299 -6789638.836 -23233948.103 10 0 60133 29700.00000 0 -6573069.804 -9213305.960 -22869190.896 10 0 60133 30600.00000 0 -5301901.313 -11679317.639 -22060756.910 10 0 60133 31500.00000 0 -4273047.554 -14119913.129 -20824419.730 10 0 60133 32400.00000 0 -3494189.247 -16465883.354 -19184230.343 10 0 60133 33300.00000 0 -2960205.544 -18649285.827 -17172048.502 10 0 60133 34200.00000 0 -2653597.427 -20606120.464 -14826925.233 10 0 60133 35100.00000 0 -2545438.993 -22278855.913 -12194348.087 10 0 60133 36000.00000 0 -2596815.737 -23618702.093 -9325363.276 10 0 60133 36900.00000 0 -2760688.732 -24587534.953 -6275591.130 10 0 60133 37800.00000 0 -2984105.832 -25159393.771 -3104153.415 10 0 60133 38700.00000 0 -3210666.553 -25321488.878 127467.234 10 0 60133 39600.00000 0 -3383136.618 -25074677.895 3356614.026 10 0 60133 40500.00000 0 -3446101.782 -24433390.645 6520666.168 10 0 60133 41400.00000 0 -3348548.813 -23425005.769 9558249.245 10 0 60133 42300.00000 0 -3046264.419 -22088704.910 12410422.456 10 0 60133 43200.00000 0 -2503950.437 -20473852.123 15021819.829 10 0 60133 44100.00000 0 -1696965.352 -18637965.870 17341723.401 10 0 60133 45000.00000 0 -612617.749 -16644368.037 19325047.649 10 0 60133 45900.00000 0 749044.045 -14559607.725 20933216.208 10 0 60133 46800.00000 0 2374980.946 -12450767.011 22134913.969 10 0 60133 47700.00000 0 4239463.057 -10382760.721 22906699.957 10 0 60133 48600.00000 0 6304909.983 -8415742.569 23233469.017 10 0 60133 49500.00000 0 8523238.355 -6602725.557 23108753.095 10 0 60133 50400.00000 0 10837662.112 -4987515.757 22534855.811 10 0 60133 51300.00000 0 13184872.011 -3603045.551 21522817.112 10 0 60133 52200.00000 0 15497504.732 -2470175.868 20092207.917 10 0 60133 53100.00000 0 17706799.400 -1597017.393 18270757.910 10 0 60133 54000.00000 0 19745331.073 -978799.032 16093822.857 10 0 60133 54900.00000 0 21549707.034 -598288.831 13603701.070 10 0 60133 55800.00000 0 23063112.759 -426749.271 10848811.790 10 0 60133 56700.00000 0 24237600.394 -425386.010 7882751.230 10 0 60133 57600.00000 0 25036023.082 -547228.095 4763244.739 10 0 60133 58500.00000 0 25433533.242 -739359.108 1551015.975 10 0 60133 59400.00000 0 25418581.340 -945403.543 -1691404.114 10 0 60133 60300.00000 0 24993372.853 -1108161.736 -4900904.293 10 0 60133 61200.00000 0 24173764.276 -1172280.219 -8015030.955 10 0 60133 62100.00000 0 22988602.959 -1086842.982 -10973211.671 10 0 60133 63000.00000 0 21478539.226 -807772.623 -13717939.602 10 0 60133 63900.00000 0 19694361.634 -299938.697 -16195894.917 10 0 60133 64800.00000 0 17694926.309 461116.626 -18358981.033 10 0 60133 65700.00000 0 15544768.117 1487908.982 -20165255.571 10 0 60133 66600.00000 0 13311494.509 2780252.141 -21579738.278 10 0 60133 67500.00000 0 11063071.435 4325040.316 -22575081.025 10 0 60133 68400.00000 0 8865114.701 6096581.729 -23132087.834 10 0 60133 69300.00000 0 6778299.315 8057469.518 -23240075.956 10 0 60133 70200.00000 0 4855993.884 10159953.775 -22897072.137 10 0 60133 71100.00000 0 3142217.311 12347757.741 -22109841.222 10 0 60133 72000.00000 0 1670001.269 14558262.886 -20893747.343 10 0 60133 72900.00000 0 460224.928 16724972.456 -19272450.854 10 0 60133 73800.00000 0 -479031.393 18780151.637 -17277447.057 10 0 60133 74700.00000 0 -1152588.381 20657535.173 -14947455.604 10 0 60133 75600.00000 0 -1577723.057 22294990.452 -12327672.028 10 0 60133 76500.00000 0 -1783197.230 23637025.837 -9468895.440 10 0 60133 77400.00000 0 -1807800.854 24637040.200 -6426548.738 10 0 60133 78300.00000 0 -1698472.259 25259220.250 -3259609.747 10 0 60133 79200.00000 0 -1508074.799 25480006.635 -29473.473 10 0 60133 80100.00000 0 -1292923.888 25289067.617 3201232.847 10 0 60133 81000.00000 0 -1110168.848 24689739.458 6369859.259 10 0 60133 81900.00000 0 -1015140.175 23698914.800 9414943.960 10 0 60133 82800.00000 0 -1058774.349 22346383.294 12277402.150 10 0 60133 83700.00000 0 -1285225.178 20673651.513 14901669.967 10 0 60133 84600.00000 0 -1729762.942 18732290.856 17236781.433 10 0 60133 85500.00000 0 -2417050.639 16581881.850 19237357.621 10 0 60134 0.00000 0 -3359870.876 14287640.195 20864488.845 10 0 60134 900.00000 0 -4558358.816 11917821.724 22086493.684 10 0 60134 1800.00000 0 -5999773.669 9541016.920 22879537.983 10 0 60134 2700.00000 0 -7658821.722 7223443.169 23228104.674 10 0 60134 3600.00000 0 -9498518.071 5026350.050 23125302.794 10 0 60134 4500.00000 0 -11471553.246 3003644.255 22573010.172 10 0 60134 5400.00000 0 -13522109.199 1199832.994 21581846.318 10 0 60134 6300.00000 0 -15588050.156 -351628.584 20170975.241 10 0 60134 7200.00000 0 -17603397.794 -1629517.119 18367741.200 10 0 60134 8100.00000 0 -19500987.867 -2625498.864 16207143.662 10 0 60134 9000.00000 0 -21215197.312 -3344238.372 13731160.871 10 0 60134 9900.00000 0 -22684627.375 -3802953.934 10987934.686 10 0 60134 10800.00000 0 -23854629.713 -4030439.138 8030832.265 10 0 60134 11700.00000 0 -24679568.652 -4065592.641 4917402.917 10 0 60134 12600.00000 0 -25124723.676 -3955519.317 1708250.906 10 0 60134 13500.00000 0 -25167751.316 -3753284.326 -1534153.135 10 0 60134 14400.00000 0 -24799644.291 -3515416.599 -4746697.973 10 0 60134 15300.00000 0 -24025147.158 -3299268.978 -7866869.747 10 0 60134 16200.00000 0 -22862610.965 -3160348.298 -10833976.810 10 0 60134 17100.00000 0 -21343293.287 -3149729.849 -13590336.666 10 0 60134 18000.00000 0 -19510133.666 -3311666.807 -16082401.022 10 0 60134 18900.00000 0 -17416056.613 -3681496.587 -18261796.735 10 0 60134 19800.00000 0 -15121874.073 -4283933.121 -20086262.358 10 0 60134 20700.00000 0 -12693875.898 -5131817.370 -21520462.482 10 0 60134 21600.00000 0 -10201209.448 -6225378.788 -22536664.763 10 0 60134 22500.00000 0 -7713157.776 -7552038.705 -23115267.510 10 0 60134 23400.00000 0 -5296429.541 -9086763.819 -23245168.670 10 0 60134 24300.00000 0 -3012572.729 -10792954.936 -22923970.189 10 0 60134 25200.00000 0 -915618.583 -12623833.903 -22158014.780 10 0 60134 26100.00000 0 949947.696 -14524270.999 -20962255.152 10 0 60134 27000.00000 0 2550806.836 -16432976.933 -19359958.772 10 0 60134 27900.00000 0 3865950.402 -18284968.537 -17382254.038 10 0 60134 28800.00000 0 4887304.864 -20014205.932 -15067526.630 10 0 60134 29700.00000 0 5619810.549 -21556291.820 -12460677.383 10 0 60134 30600.00000 0 6080953.764 -22851120.874 -9612255.606 10 0 60134 31500.00000 0 6299772.944 -23845369.108 -6577484.077 10 0 60134 32400.00000 0 6315381.544 -24494719.569 -3415194.049 10 0 60134 33300.00000 0 6175070.479 -24765731.471 -186690.366 10 0 60134 34200.00000 0 5932070.388 -24637274.509 3045431.704 10 0 60134 35100.00000 0 5643068.331 -24101468.084 6218495.311 10 0 60134 36000.00000 0 5365583.770 -23164085.666 9270953.363 10 0 60134 36900.00000 0 5155314.664 -21844406.736 12143578.975 10 0 60134 37800.00000 0 5063565.840 -20174521.769 14780612.103 10 0 60134 38700.00000 0 5134868.417 -18198118.422 17130840.234 10 0 60134 39600.00000 0 5404891.114 -15968798.754 19148592.266 10 0 60134 40500.00000 0 5898732.190 -13547996.787 20794626.426 10 0 60134 41400.00000 0 6629664.837 -11002582.288 22036895.092 10 0 60134 42300.00000 0 7598390.031 -8402249.825 22851171.697 10 0 60134 43200.00000 0 8792829.660 -5816800.971 23221527.456 10 0 60134 44100.00000 0 10188470.211 -3313432.111 23140648.465 10 0 60134 45000.00000 0 11749244.276 -954140.190 22609986.553 10 0 60134 45900.00000 0 13428914.537 1206646.077 21639740.412 10 0 60134 46800.00000 0 15172903.733 3124111.202 20248666.610 10 0 60134 47700.00000 0 16920495.060 4764689.111 18463723.329 10 0 60134 48600.00000 0 18607311.626 6107222.478 16319552.919 10 0 60134 49500.00000 0 20167971.349 7143597.037 13857812.563 10 0 60134 50400.00000 0 21538805.825 7878824.683 11126365.529 10 0 60134 51300.00000 0 22660528.523 8330572.484 8178348.464 10 0 60134 52200.00000 0 23480739.370 8528158.241 5071132.905 10 0 60134 53100.00000 0 23956159.387 8511055.933 1865201.697 10 0 60134 54000.00000 0 24054500.299 8326975.453 -1377037.099 10 0 60134 54900.00000 0 23755889.444 8029599.208 -4592474.728 10 0 60134 55800.00000 0 23053789.242 7676072.912 -7718539.654 10 0 60134 56700.00000 0 21955372.067 7324358.312 -10694423.630 10 0 60134 57600.00000 0 20481334.650 7030561.350 -13462271.051 10 0 60134 58500.00000 0 18665159.968 6846350.064 -15968307.598 10 0 60134 59400.00000 0 16551858.067 6816572.351 -18163885.832 10 0 60134 60300.00000 0 14196239.122 6977174.866 -20006427.344 10 0 60134 61200.00000 0 11660791.552 7353511.130 -21460243.498 10 0 60134 62100.00000 0 9013254.291 7959110.151 -22497219.505 10 0 60134 63000.00000 0 6323984.554 8794957.174 -23097349.567 10 0 60134 63900.00000 0 3663230.607 9849316.438 -23249113.724 10 0 60134 64800.00000 0 1098422.379 11098103.096 -22949690.278 10 0 60134 65700.00000 0 -1308408.457 12505788.493 -22205000.651 10 0 60134 66600.00000 0 -3502973.043 14026800.837 -21029586.612 10 0 60134 67500.00000 0 -5440738.742 15607362.812 -19446322.811 10 0 60134 68400.00000 0 -7088529.488 17187689.643 -17485970.373 10 0 60134 69300.00000 0 -8425648.310 18704456.147 -15186580.192 10 0 60134 70200.00000 0 -9444477.079 20093430.205 -12592757.164 10 0 60134 71100.00000 0 -10150530.127 21292163.096 -9754799.140 10 0 60134 72000.00000 0 -10561960.902 22242624.587 -6727726.748 10 0 60134 72900.00000 0 -10708543.539 22893672.846 -3570222.305 10 0 60134 73800.00000 0 -10630172.955 23203255.900 -343497.834 10 0 60134 74700.00000 0 -10374947.147 23140252.325 2889886.263 10 0 60134 75600.00000 0 -9996912.783 22685873.724 6067229.319 10 0 60134 76500.00000 0 -9553569.283 21834569.689 9126902.142 10 0 60134 77400.00000 0 -9103236.741 20594396.564 12009539.003 10 0 60134 78300.00000 0 -8702398.729 18986833.650 14659186.898 10 0 60134 79200.00000 0 -8403132.201 17046053.447 17024389.920 10 0 60134 80100.00000 0 -8250733.036 14817675.287 19059187.795 10 0 60134 81000.00000 0 -8281637.674 12357053.183 20724009.330 10 0 60134 81900.00000 0 -8521728.968 9727168.077 21986443.555 10 0 60134 82800.00000 0 -8985098.330 6996211.192 22821873.566 10 0 60134 83700.00000 0 -9673317.269 4234957.996 23213960.749 10 0 60134 84600.00000 0 -10575250.171 1514041.113 23154969.716 10 0 60134 85500.00000 0 -11667417.535 -1098765.156 22645927.275 10 0 60135 0.00000 0 -12914895.682 -3541136.140 21696611.848 10 0 60135 900.00000 0 -14272717.234 -5758557.865 20325372.260 10 0 60135 1800.00000 0 -15687712.980 -7706356.586 18558779.939 10 0 60135 2700.00000 0 -17100720.909 -9351316.778 16431118.785 10 0 60135 3600.00000 0 -18449068.434 -10672816.947 13983723.001 10 0 60135 4500.00000 0 -19669224.186 -11663437.366 11264174.823 10 0 60135 5400.00000 0 -20699507.346 -12329014.501 8325377.486 10 0 60135 6300.00000 0 -21482739.793 -12688140.501 5224521.485 10 0 60135 7200.00000 0 -21968728.288 -12771129.700 2021964.705 10 0 60135 8100.00000 0 -22116471.001 -12618496.866 -1219951.113 10 0 60135 9000.00000 0 -21895994.186 -12279012.784 -4438123.527 10 0 60135 9900.00000 0 -21289740.564 -11807420.876 -7569927.203 10 0 60135 10800.00000 0 -20293450.122 -11261912.943 -10554441.115 10 0 60135 11700.00000 0 -18916495.737 -10701472.345 -13333640.229 10 0 60135 12600.00000 0 -17181659.302 -10183198.247 -15853527.651 10 0 60135 13500.00000 0 -15124357.860 -9759725.109 -18065184.743 10 0 60135 14400.00000 0 -12791352.437 -9476847.058 -19925718.764 10 0 60135 15300.00000 0 -10238993.985 -9371447.709 -21399089.902 10 0 60135 16200.00000 0 -7531080.022 -9469822.609 -22456802.330 10 0 60135 17100.00000 0 -4736411.462 -9786464.569 -23078446.834 10 0 60135 18000.00000 0 -1926151.273 -10323362.432 -23252085.555 10 0 60135 18900.00000 0 828905.681 -11069842.084 -22974472.507 10 0 60135 19800.00000 0 3461039.023 -12002955.859 -22251106.612 10 0 60135 20700.00000 0 5908174.228 -13088403.515 -21096117.019 10 0 60135 21600.00000 0 8116213.642 -14281946.024 -19531983.499 10 0 60135 22500.00000 0 10041032.007 -15531252.906 -17589097.534 10 0 60135 23400.00000 0 11650055.231 -16778105.938 -15305172.619 10 0 60135 24300.00000 0 12923358.470 -17960867.286 -12724514.890 10 0 60135 25200.00000 0 13854239.411 -19017109.063 -9897167.764 10 0 60135 26100.00000 0 14449244.274 -19886294.523 -6877946.615 10 0 60135 27000.00000 0 14727646.724 -20512398.789 -3725381.655 10 0 60135 27900.00000 0 14720402.527 -20846359.356 -500588.916 10 0 60135 28800.00000 0 14468624.533 -20848253.501 2733909.161 10 0 60135 29700.00000 0 14021642.586 -20489110.917 5915391.032 10 0 60135 30600.00000 0 13434730.277 -19752284.982 8982148.118 10 0 60135 31500.00000 0 12766594.353 -18634324.320 11874678.250 10 0 60135 32400.00000 0 12076732.633 -17145307.099 14536837.520 10 0 60135 33300.00000 0 11422771.705 -15308622.816 16916928.289 10 0 60135 34200.00000 0 10857896.627 -13160209.359 18968702.371 10 0 60135 35100.00000 0 10428480.995 -10747275.769 20652260.013 10 0 60135 36000.00000 0 10172017.404 -8126562.491 21934827.353 10 0 60135 36900.00000 0 10115435.812 -5362210.240 22791397.256 10 0 60135 37800.00000 0 10273881.151 -2523324.856 23205221.049 10 0 60135 38700.00000 0 10650002.388 318661.767 23168141.356 10 0 60135 39600.00000 0 11233783.868 3092725.893 22680759.219 10 0 60135 40500.00000 0 12002927.086 5730968.419 21752431.666 10 0 60135 41400.00000 0 12923767.943 8171201.226 20401099.056 10 0 60135 42300.00000 0 13952691.876 10359296.119 18652944.763 10 0 60135 43200.00000 0 15037988.175 12251198.708 16541892.958 10 0 60135 44100.00000 0 16122065.962 13814523.404 14108953.494 10 0 60135 45000.00000 0 17143938.649 15029662.962 11401426.078 10 0 60135 45900.00000 0 18041871.964 15890366.427 8471978.895 10 0 60135 46800.00000 0 18756083.256 16403761.640 5377619.607 10 0 60135 47700.00000 0 19231377.264 16589822.048 2178579.180 10 0 60135 48600.00000 0 19419605.931 16480301.195 -1062869.060 10 0 60135 49500.00000 0 19281847.210 16117181.037 -4283631.188 10 0 60135 50400.00000 0 18790209.669 15550700.955 -7421030.317 10 0 60135 51300.00000 0 17929185.721 14837052.239 -10414034.858 10 0 60135 52200.00000 0 16696495.619 14035836.978 -13204452.498 10 0 60135 53100.00000 0 15103386.146 13207400.077 -15738065.778 10 0 60135 54000.00000 0 13174371.199 12410148.236 -17965686.742 10 0 60135 54900.00000 0 10946425.091 11697969.804 -19844110.051 10 0 60135 55800.00000 0 8467662.482 11117864.685 -21336946.322 10 0 60135 56700.00000 0 5795560.274 10707884.116 -22415320.169 10 0 60135 57600.00000 0 2994795.670 10495466.559 -23058420.326 10 0 60135 58500.00000 0 134790.381 10496238.996 -23253892.233 10 0 60135 59400.00000 0 -2712937.293 10713333.077 -22998066.612 10 0 60135 60300.00000 0 -5477503.204 11137243.891 -22296020.605 10 0 60135 61200.00000 0 -8091358.474 11746236.449 -21161471.128 10 0 60135 62100.00000 0 -10492850.180 12507282.162 -19616503.070 10 0 60135 63000.00000 0 -12628536.751 13377485.599 -17691137.875 10 0 60135 63900.00000 0 -14455163.453 14305941.526 -15422750.850 10 0 60135 64800.00000 0 -15941217.444 15235944.350 -12855348.226 10 0 60135 65700.00000 0 -17067999.204 16107457.499 -10038717.518 10 0 60135 66600.00000 0 -17830167.057 16859739.320 -7027467.114 10 0 60135 67500.00000 0 -18235733.295 17434015.509 -3879973.144 10 0 60135 68400.00000 0 -18305513.043 17776085.972 -657253.456 10 0 60135 69300.00000 0 -18072049.741 17838756.541 2578209.860 10 0 60135 70200.00000 0 -17578062.846 17583993.134 5763676.960 10 0 60135 71100.00000 0 -16874483.301 16984707.334 8837362.613 10 0 60135 72000.00000 0 -16018159.496 16026097.613 11739631.090 10 0 60135 72900.00000 0 -15069330.274 14706488.878 14414150.533 10 0 60135 73800.00000 0 -14088971.208 13037633.846 16808984.555 10 0 60135 74700.00000 0 -13136125.756 11044462.147 18877599.983 10 0 60135 75600.00000 0 -12265333.486 8764286.071 20579771.298 10 0 60135 76500.00000 0 -11524263.514 6245494.388 21882364.342 10 0 60135 77400.00000 0 -10951652.805 3545787.093 22759984.071 10 0 60135 78300.00000 0 -10575636.176 730023.002 23195473.731 10 0 60135 79200.00000 0 -10412538.645 -2132231.716 23180255.566 10 0 60135 80100.00000 0 -10466181.361 -4969353.298 22714506.021 10 0 60135 81000.00000 0 -10727730.999 -7710399.297 21807161.534 10 0 60135 81900.00000 0 -11176099.650 -10287823.472 20475754.031 10 0 60135 82800.00000 0 -11778879.104 -12640054.137 18746078.584 10 0 60135 83700.00000 0 -12493770.835 -14713828.839 16651698.801 10 0 60135 84600.00000 0 -13270451.832 -16466188.118 14233298.841 10 0 60135 85500.00000 0 -14052797.782 -17866045.049 11537894.065 99